Weather History for Casper, WY

Change the Weather History Date:

Friday, March 29, 2013

  Actual Average Record
Temperature  
Mean Temperature 47 °F 38 °F  
Max Temperature 64 °F 52 °F 74 °F (1986)
Min Temperature 30 °F 25 °F 0 °F (1975)
Degree Days  
Heating Degree Days 18 26  
Month to date heating degree days 918 872  
Since 1 July heating degree days 5968 6320  
Cooling Degree Days 0 0  
Month to date cooling degree days 0 0  
Year to date cooling degree days 0 0  
Moisture  
Dew Point 25 °F    
Average Humidity 50    
Maximum Humidity 82    
Minimum Humidity 17    
Precipitation  
Precipitation T in 0.03 in 0.40 in (1979)
Month to date precipitation 0.71 0.75  
Year to date precipitation 1.48 1.83  
Snow  
Snow 0.00 in 0.40 in - ()
Month to date snowfall 7.1 10.1  
Since 1 July snowfall 39.8 59.5  
Snow Depth 0.00 in    
Sea Level Pressure  
Sea Level Pressure 30.02 in    
Wind  
Wind Speed 9 mph (West)    
Max Wind Speed 26 mph    
Max Gust Speed 35 mph    
Visibility 10 miles    
Events      
T = Trace of Precipitation, MM = Missing Value Source: NWS Daily Summary

Daily Weather History Graph

Daily Weather History Graph

Search for Another Location

Airport:

Trip Planner

Search our weather history database for the weather conditions in past years. The results will help you decide how hot, cold, wet, or windy it might be!

Date:

Astronomy

Mar. 29, 2013 Rise Set
Actual Time 6:52 AM MDT 7:29 PM MDT
Civil Twilight 6:24 AM MDT 7:57 PM MDT
Nautical Twilight 5:50 AM MDT 8:31 PM MDT
Astronomical Twilight 5:15 AM MDT 9:06 PM MDT
Moon 10:37 PM MDT (3/29) 7:59 AM MDT (3/29)
Length of Visible Light 13h 33m
Length of Day
12h 36m
Waning Gibbous, 93% of the Moon is Illuminated
Mar 29
Waning Gibbous
Apr 2
Last Quarter
Apr 10
New
Apr 18
First Quarter
Apr 25
Full

Hourly Weather History & Observations

Time (MDT) Temp. Windchill Dew Point Humidity Pressure Visibility Wind Dir Wind Speed Gust Speed Precip Events Conditions
12:53 AM 35.1 °F - 25.0 °F 67% 30.04 in 10.0 mi Calm Calm - N/A   Mostly Cloudy
1:53 AM 33.1 °F 27.7 °F 24.1 °F 70% 30.03 in 10.0 mi NW 5.8 mph - N/A   Mostly Cloudy
2:53 AM 34.0 °F 29.8 °F 25.0 °F 70% 30.03 in 10.0 mi NW 4.6 mph - N/A   Mostly Cloudy
3:53 AM 30.9 °F 26.2 °F 24.1 °F 76% 30.01 in 10.0 mi NW 4.6 mph - N/A   Clear
4:53 AM 36.0 °F 31.1 °F 27.0 °F 70% 29.99 in 10.0 mi West 5.8 mph - N/A   Clear
5:53 AM 37.0 °F 32.4 °F 26.1 °F 65% 29.99 in 10.0 mi SW 5.8 mph - N/A   Mostly Cloudy
6:53 AM 42.1 °F 38.4 °F 28.0 °F 58% 30.01 in 10.0 mi WSW 5.8 mph - N/A   Overcast
7:53 AM 44.1 °F 41.5 °F 28.9 °F 55% 30.05 in 10.0 mi WSW 4.6 mph - N/A   Overcast
8:53 AM 48.9 °F - 30.0 °F 48% 30.05 in 10.0 mi SW 15.0 mph - N/A   Mostly Cloudy
9:53 AM 53.1 °F - 28.9 °F 40% 30.04 in 10.0 mi SW 16.1 mph - N/A   Mostly Cloudy
10:53 AM 55.9 °F - 26.1 °F 32% 30.06 in 10.0 mi Variable 6.9 mph - N/A   Scattered Clouds
11:53 AM 59.0 °F - 21.9 °F 24% 30.05 in 10.0 mi WNW 8.1 mph - N/A   Scattered Clouds
12:53 PM 60.1 °F - 18.0 °F 20% 30.01 in 10.0 mi WNW 10.4 mph 17.3 mph N/A   Clear
1:53 PM 63.0 °F - 19.0 °F 18% 29.99 in 10.0 mi NW 16.1 mph 23.0 mph N/A   Clear
2:53 PM 62.1 °F - 19.0 °F 19% 29.97 in 10.0 mi West 8.1 mph - N/A   Clear
3:53 PM 61.0 °F - 15.1 °F 17% 29.98 in 10.0 mi NNW 12.7 mph 21.9 mph N/A   Clear
4:53 PM 62.1 °F - 17.1 °F 18% 29.95 in 10.0 mi WNW 13.8 mph - N/A   Partly Cloudy
5:53 PM 57.9 °F - 19.0 °F 22% 29.96 in 10.0 mi NW 12.7 mph - N/A   Overcast
6:53 PM 55.0 °F - 23.0 °F 29% 29.97 in 10.0 mi NNW 15.0 mph 21.9 mph N/A   Overcast
7:14 PM 53.6 °F - 28.4 °F 38% 30.08 in 10.0 mi West 20.7 mph 34.5 mph 0.00 in   Overcast
7:53 PM 48.0 °F - 30.0 °F 50% 30.04 in 10.0 mi NNW 3.5 mph 16.1 mph 0.00 in   Mostly Cloudy
8:53 PM 45.0 °F 43.5 °F 32.0 °F 60% 30.05 in 10.0 mi SSW 3.5 mph - N/A   Overcast
9:53 PM 39.0 °F 35.7 °F 30.9 °F 73% 30.06 in 10.0 mi West 4.6 mph - N/A   Clear
10:53 PM 37.0 °F 30.4 °F 32.0 °F 82% 30.07 in 10.0 mi West 9.2 mph - N/A   Clear
11:53 PM 39.0 °F 33.4 °F 33.1 °F 79% 30.06 in 10.0 mi WSW 8.1 mph - N/A   Mostly Cloudy